User: anonymous
Location: Cincinnati Observatory Center
(39.1389°N, 84.4225°W)
Time: 08:19:41
(UTC-04:00)
Language:

JAS-1B - Orbit

View from above orbital plane
View from above orbital plane
View from above satellite
View from above satellite

Ground track
Ground track

The orbit data is extracted from the following two-line orbital elements,

1 20480U 90013C   14208.81794435 -.00000015  00000-0  48208-4 0  7949
2 20480 099.0472 164.3188 0539425 261.7403 164.0244 12.83394380146349
Epoch (UTC): 27 July 2014 19:37:50
Eccentricity: 0.0539425
inclination: 99.0472°
perigee height: 912 km
apogee height: 1743 km
right ascension of ascending node: 164.3188°
argument of perigee: 261.7403°
revolutions per day: 12.83394380
mean anomaly at epoch: 164.0244°
orbit number at epoch: 14634

The dashed part of the orbit path shows where the satellite is in the earth's shadow,  

DLR